| time (UTC) | temp F | wind direction | speed MPH | gust MPH | rain 1hr in | rain 24hr in | rain mn in | humidity % | barometer mb |
| 20260905213102 | 63 | 270 | 9.0 | 0.0 | 0.00 | 0.00 | 0.00 | 55 | 1023.0 |
| 20260905211849 | 63 | 270 | 9.0 | 0.0 | 0.00 | 0.00 | 0.00 | 51 | |
| 20260905210127 | 63 | 270 | 9.0 | 0.0 | 0.00 | 0.00 | 0.00 | 55 | 1023.0 |
| 20260905210031 | 63 | 270 | 7.0 | 0.0 | 0.00 | 0.00 | 0.00 | 55 | 1022.0 |
| 20260905205109 | 63 | 270 | 7.0 | 0.0 | 0.00 | 0.00 | 0.00 | 55 | 1022.0 |
| 20260905204709 | 63 | 270 | 7.0 | 0.0 | 0.00 | 0.00 | 0.00 | 55 | 1022.0 |
| 20260905204110 | 63 | 270 | 7.0 | 0.0 | 0.00 | 0.00 | 0.00 | 55 | 1022.0 |
| 20260905203210 | 63 | 270 | 7.0 | 0.0 | 0.00 | 0.00 | 0.00 | 55 | 1022.0 |
| 20260905201851 | 64 | 270 | 9.0 | 0.0 | 0.00 | 0.00 | 0.00 | 48 | |
| 20260905200910 | 64 | 270 | 9.0 | 0.0 | 0.00 | 0.00 | 0.00 | 52 | 1022.0 |
| 20260905200311 | 64 | 270 | 9.0 | 0.0 | 0.00 | 0.00 | 0.00 | 52 | 1022.0 |
| 20260905195910 | 64 | 280 | 14.0 | 0.0 | 0.00 | 0.00 | 0.00 | 52 | 1022.0 |
| 20260905195210 | 64 | 280 | 14.0 | 0.0 | 0.00 | 0.00 | 0.00 | 52 | 1022.0 |
| 20260905194110 | 64 | 280 | 14.0 | 0.0 | 0.00 | 0.00 | 0.00 | 52 | 1022.0 |
| 20260905193416 | 64 | 280 | 14.0 | 0.0 | 0.00 | 0.00 | 0.00 | 52 | 1022.0 |
| 20260905193210 | 64 | 280 | 14.0 | 0.0 | 0.00 | 0.00 | 0.00 | 52 | 1022.0 |
| 20260905192711 | 66 | 280 | 13.0 | 0.0 | 0.00 | 0.00 | 0.00 | 48 | 1021.0 |
| 20260905192322 | 64 | 280 | 14.0 | 0.0 | 0.00 | 0.00 | 0.00 | 48 | |
| 20260905192117 | 66 | 280 | 13.0 | 0.0 | 0.00 | 0.00 | 0.00 | 48 | 1021.0 |
| 20260905191610 | 66 | 280 | 13.0 | 0.0 | 0.00 | 0.00 | 0.00 | 48 | 1021.0 |
| 20260905181909 | 66 | 280 | 9.0 | 0.0 | 0.00 | 0.00 | 0.00 | 48 | |
| 20260905181309 | 66 | 280 | 9.0 | 0.0 | 0.00 | 0.00 | 0.00 | 48 | 1021.0 |
| 20260905181109 | 66 | 280 | 9.0 | 0.0 | 0.00 | 0.00 | 0.00 | 48 | 1021.0 |
| 20260905180710 | 66 | 280 | 9.0 | 0.0 | 0.00 | 0.00 | 0.00 | 48 | 1021.0 |
| 20260905180312 | 66 | 280 | 9.0 | 0.0 | 0.00 | 0.00 | 0.00 | 48 | 1021.0 |
| 20260905180110 | 66 | 280 | 9.0 | 0.0 | 0.00 | 0.00 | 0.00 | 48 | 1021.0 |
| 20260905175410 | 70 | 290 | 12.0 | 0.0 | 0.00 | 0.00 | 0.00 | 40 | 1020.0 |
| 20260905175209 | 70 | 290 | 12.0 | 0.0 | 0.00 | 0.00 | 0.00 | 40 | 1020.0 |
| 20260905174710 | 70 | 290 | 12.0 | 0.0 | 0.00 | 0.00 | 0.00 | 40 | 1020.0 |
| 20260905174110 | 70 | 290 | 12.0 | 0.0 | 0.00 | 0.00 | 0.00 | 40 | 1020.0 |
| 20260905173417 | 70 | 290 | 12.0 | 0.0 | 0.00 | 0.00 | 0.00 | 40 | 1020.0 |
| 20260905172710 | 70 | 290 | 14.0 | 0.0 | 0.00 | 0.00 | 0.00 | 40 | 1020.0 |
| 20260905172117 | 70 | 290 | 14.0 | 0.0 | 0.00 | 0.00 | 0.00 | 40 | 1020.0 |
| 20260905171909 | 70 | 290 | 14.0 | 0.0 | 0.00 | 0.00 | 0.00 | 40 | |
| 20260905171532 | 70 | 290 | 14.0 | 0.0 | 0.00 | 0.00 | 0.00 | 40 | 1020.0 |
| 20260905170524 | 70 | 290 | 14.0 | 0.0 | 0.00 | 0.00 | 0.00 | 40 | 1020.0 |
| 20260905163810 | 70 | 300 | 13.0 | 0.0 | 0.00 | 0.00 | 0.00 | 43 | 1019.0 |
| 20260905163102 | 70 | 300 | 13.0 | 0.0 | 0.00 | 0.00 | 0.00 | 43 | 1019.0 |
| 20260905162909 | 72 | 290 | 13.0 | 0.0 | 0.00 | 0.00 | 0.00 | 40 | 1019.0 |
| 20260905162334 | 72 | 300 | 14.0 | 0.0 | 0.00 | 0.00 | 0.00 | 37 | |
| 20260905162210 | 72 | 290 | 13.0 | 0.0 | 0.00 | 0.00 | 0.00 | 40 | 1019.0 |
| 20260905161610 | 72 | 290 | 13.0 | 0.0 | 0.00 | 0.00 | 0.00 | 40 | 1019.0 |
| 20260905161110 | 72 | 290 | 13.0 | 0.0 | 0.00 | 0.00 | 0.00 | 40 | 1019.0 |
| 20260905160810 | 72 | 290 | 13.0 | 0.0 | 0.00 | 0.00 | 0.00 | 40 | 1019.0 |
| 20260905160311 | 72 | 290 | 13.0 | 0.0 | 0.00 | 0.00 | 0.00 | 40 | 1019.0 |
| 20260905154710 | 72 | 300 | 13.0 | 0.0 | 0.00 | 0.00 | 0.00 | 40 | 1019.0 |
| 20260905154531 | 72 | 300 | 13.0 | 0.0 | 0.00 | 0.00 | 0.00 | 40 | 1019.0 |
| 20260905154210 | 72 | 300 | 13.0 | 0.0 | 0.00 | 0.00 | 0.00 | 40 | 1019.0 |
| 20260905151814 | 70 | 300 | 13.0 | 0.0 | 0.00 | 0.00 | 0.00 | 43 | 1019.0 |
| 20260905151800 | 72 | 310 | 12.0 | 0.0 | 0.00 | 0.00 | 0.00 | 40 | |
| 20260905151111 | 70 | 300 | 13.0 | 0.0 | 0.00 | 0.00 | 0.00 | 43 | 1019.0 |
| 20260905150609 | 70 | 300 | 13.0 | 0.0 | 0.00 | 0.00 | 0.00 | 43 | 1019.0 |
| 20260905145909 | 72 | 300 | 13.0 | 0.0 | 0.00 | 0.00 | 0.00 | 43 | 1019.0 |
| 20260905145610 | 72 | 300 | 13.0 | 0.0 | 0.00 | 0.00 | 0.00 | 43 | 1019.0 |
| 20260905145109 | 72 | 300 | 13.0 | 0.0 | 0.00 | 0.00 | 0.00 | 43 | 1019.0 |
| 20260905144209 | 72 | 300 | 13.0 | 0.0 | 0.00 | 0.00 | 0.00 | 43 | 1019.0 |
| 20260905143710 | 72 | 300 | 13.0 | 0.0 | 0.00 | 0.00 | 0.00 | 43 | 1019.0 |
| 20260905142117 | 72 | 280 | 17.0 | 0.0 | 0.00 | 0.00 | 0.00 | 40 | 1019.0 |
| 20260905141801 | 72 | 300 | 14.0 | 0.0 | 0.00 | 0.00 | 0.00 | 37 | |
| 20260905140422 | 72 | 280 | 17.0 | 0.0 | 0.00 | 0.00 | 0.00 | 40 | 1019.0 |
| 20260905140110 | 72 | 280 | 17.0 | 0.0 | 0.00 | 0.00 | 0.00 | 40 | 1019.0 |
| 20260905135032 | 72 | 270 | 18.0 | 0.0 | 0.00 | 0.00 | 0.00 | 40 | 1019.0 |
| 20260905134609 | 72 | 270 | 18.0 | 0.0 | 0.00 | 0.00 | 0.00 | 40 | 1019.0 |
| 20260905134210 | 72 | 270 | 18.0 | 0.0 | 0.00 | 0.00 | 0.00 | 40 | 1019.0 |
| 20260905133811 | 72 | 270 | 18.0 | 0.0 | 0.00 | 0.00 | 0.00 | 40 | 1019.0 |
| 20260905133416 | 72 | 270 | 18.0 | 0.0 | 0.00 | 0.00 | 0.00 | 40 | 1019.0 |
| 20260905133109 | 72 | 270 | 18.0 | 0.0 | 0.00 | 0.00 | 0.00 | 40 | 1019.0 |
| 20260905132213 | 70 | 290 | 16.0 | 0.0 | 0.00 | 0.00 | 0.00 | 43 | 1019.0 |
| 20260905132052 | 72 | 290 | 14.0 | 0.0 | 0.00 | 0.00 | 0.00 | 40 | |
| 20260905131609 | 70 | 290 | 16.0 | 0.0 | 0.00 | 0.00 | 0.00 | 43 | 1019.0 |
| 20260905131110 | 70 | 290 | 16.0 | 0.0 | 0.00 | 0.00 | 0.00 | 43 | 1019.0 |
| 20260905130710 | 70 | 290 | 16.0 | 0.0 | 0.00 | 0.00 | 0.00 | 43 | 1019.0 |
| 20260905130211 | 70 | 290 | 16.0 | 0.0 | 0.00 | 0.00 | 0.00 | 43 | 1019.0 |
| 20260905125609 | 72 | 260 | 17.0 | 0.0 | 0.00 | 0.00 | 0.00 | 40 | 1019.0 |
| 20260905125410 | 72 | 260 | 17.0 | 0.0 | 0.00 | 0.00 | 0.00 | 40 | 1019.0 |
| 20260905125210 | 72 | 260 | 17.0 | 0.0 | 0.00 | 0.00 | 0.00 | 40 | 1019.0 |
| 20260905124909 | 72 | 260 | 17.0 | 0.0 | 0.00 | 0.00 | 0.00 | 40 | 1019.0 |
| 20260905124531 | 72 | 260 | 17.0 | 0.0 | 0.00 | 0.00 | 0.00 | 40 | 1019.0 |
| 20260905124031 | 72 | 260 | 17.0 | 0.0 | 0.00 | 0.00 | 0.00 | 40 | 1019.0 |
| 20260905123610 | 72 | 260 | 17.0 | 0.0 | 0.00 | 0.00 | 0.00 | 40 | 1019.0 |
| 20260905123309 | 72 | 260 | 17.0 | 0.0 | 0.00 | 0.00 | 0.00 | 40 | 1019.0 |
| 20260905123110 | 72 | 260 | 17.0 | 0.0 | 0.00 | 0.00 | 0.00 | 40 | 1019.0 |
| 20260905122110 | 70 | 270 | 17.0 | 0.0 | 0.00 | 0.00 | 0.00 | 46 | 1019.0 |
| 20260905122003 | 72 | 260 | 18.0 | 0.0 | 0.00 | 0.00 | 0.00 | 40 | |
| 20260905121714 | 70 | 270 | 17.0 | 0.0 | 0.00 | 0.00 | 0.00 | 46 | 1019.0 |
| 20260905121109 | 70 | 270 | 17.0 | 0.0 | 0.00 | 0.00 | 0.00 | 46 | 1019.0 |
| 20260905120525 | 70 | 270 | 17.0 | 0.0 | 0.00 | 0.00 | 0.00 | 46 | 1019.0 |
| 20260905115811 | 70 | 260 | 18.0 | 30.0 | 0.00 | 0.00 | 0.00 | 43 | 1019.0 |
| 20260905114031 | 70 | 260 | 18.0 | 30.0 | 0.00 | 0.00 | 0.00 | 43 | 1019.0 |
| 20260905113103 | 70 | 260 | 18.0 | 30.0 | 0.00 | 0.00 | 0.00 | 43 | 1019.0 |
| 20260905112710 | 70 | 270 | 13.0 | 0.0 | 0.00 | 0.00 | 0.00 | 49 | 1019.0 |
| 20260905112216 | 70 | 270 | 13.0 | 0.0 | 0.00 | 0.00 | 0.00 | 49 | 1019.0 |
| 20260905111934 | 68 | 260 | 16.0 | 26.0 | 0.00 | 0.00 | 0.00 | 45 | |
| 20260905111817 | 70 | 270 | 13.0 | 0.0 | 0.00 | 0.00 | 0.00 | 49 | 1019.0 |
| 20260905110104 | 70 | 270 | 13.0 | 0.0 | 0.00 | 0.00 | 0.00 | 49 | 1019.0 |
| 20260905105209 | 68 | 250 | 16.0 | 0.0 | 0.00 | 0.00 | 0.00 | 56 | 1019.0 |
| 20260905105031 | 68 | 250 | 16.0 | 0.0 | 0.00 | 0.00 | 0.00 | 56 | 1019.0 |
| 20260905104610 | 68 | 250 | 16.0 | 0.0 | 0.00 | 0.00 | 0.00 | 56 | 1019.0 |
| 20260905104310 | 68 | 250 | 16.0 | 0.0 | 0.00 | 0.00 | 0.00 | 56 | 1019.0 |
| 20260905103103 | 68 | 250 | 16.0 | 0.0 | 0.00 | 0.00 | 0.00 | 56 | 1019.0 |
| 20260905102810 | 68 | 250 | 15.0 | 0.0 | 0.00 | 0.00 | 0.00 | 52 | 1019.0 |
| 20260905102315 | 68 | 250 | 16.0 | 0.0 | 0.00 | 0.00 | 0.00 | 52 | |
| 20260905102308 | 68 | 250 | 15.0 | 0.0 | 0.00 | 0.00 | 0.00 | 52 | 1019.0 |
| 20260905101909 | 68 | 250 | 15.0 | 0.0 | 0.00 | 0.00 | 0.00 | 52 | 1019.0 |
| 20260905101410 | 68 | 250 | 15.0 | 0.0 | 0.00 | 0.00 | 0.00 | 52 | 1019.0 |
| 20260905100810 | 68 | 250 | 15.0 | 0.0 | 0.00 | 0.00 | 0.00 | 52 | 1019.0 |
| 20260905100313 | 68 | 250 | 15.0 | 0.0 | 0.00 | 0.00 | 0.00 | 52 | 1019.0 |
| 20260905095210 | 66 | 250 | 14.0 | 0.0 | 0.00 | 0.00 | 0.00 | 59 | 1019.0 |
| 20260905094810 | 66 | 250 | 14.0 | 0.0 | 0.00 | 0.00 | 0.00 | 59 | 1019.0 |
| 20260905094209 | 66 | 250 | 14.0 | 0.0 | 0.00 | 0.00 | 0.00 | 59 | 1019.0 |
| 20260905093710 | 66 | 250 | 14.0 | 0.0 | 0.00 | 0.00 | 0.00 | 59 | 1019.0 |
| 20260905092410 | 64 | 260 | 14.0 | 0.0 | 0.00 | 0.00 | 0.00 | 63 | 1019.0 |
| 20260905091915 | 64 | 260 | 14.0 | 0.0 | 0.00 | 0.00 | 0.00 | 63 | 1019.0 |
| 20260905091901 | 64 | 250 | 14.0 | 0.0 | 0.00 | 0.00 | 0.00 | 59 | |
| 20260905090810 | 64 | 260 | 14.0 | 0.0 | 0.00 | 0.00 | 0.00 | 63 | 1019.0 |
| 20260905084209 | 64 | 250 | 14.0 | 0.0 | 0.00 | 0.00 | 0.00 | 67 | 1019.0 |
| 20260905083103 | 64 | 250 | 14.0 | 0.0 | 0.00 | 0.00 | 0.00 | 67 | 1019.0 |
| 20260905081855 | 63 | 260 | 14.0 | 0.0 | 0.00 | 0.00 | 0.00 | 67 | |
| 20260905073103 | 63 | 240 | 14.0 | 0.0 | 0.00 | 0.00 | 0.00 | 72 | 1018.0 |
| 20260905072157 | 61 | 240 | 12.0 | 0.0 | 0.00 | 0.00 | 0.00 | 77 | |
| 20260905063103 | 59 | 230 | 13.0 | 0.0 | 0.00 | 0.00 | 0.00 | 82 | 1019.0 |
| 20260905061856 | 59 | 220 | 12.0 | 0.0 | 0.00 | 0.00 | 0.00 | 82 | |
| 20260905060103 | 59 | 220 | 10.0 | 0.0 | 0.00 | 0.00 | 0.00 | 87 | 1018.0 |
| 20260905053103 | 57 | 230 | 12.0 | 0.0 | 0.00 | 0.00 | 0.00 | 87 | 1018.0 |
| 20260905051855 | 57 | 220 | 9.0 | 0.0 | 0.00 | 0.00 | 0.00 | 87 | |
| 20260905050103 | 57 | 220 | 9.0 | 0.0 | 0.00 | 0.00 | 0.00 | 87 | 1017.0 |
| 20260905043103 | 57 | 250 | 3.0 | 0.0 | 0.00 | 0.00 | 0.00 | 87 | 1017.0 |
| 20260905042257 | 57 | 220 | 7.0 | 0.0 | 0.00 | 0.00 | 0.00 | 87 | |
| 20260905033102 | 59 | 250 | 12.0 | 0.0 | 0.00 | 0.00 | 0.00 | 77 | 1017.0 |
| 20260905032214 | 59 | 250 | 12.0 | 0.0 | 0.00 | 0.00 | 0.00 | 77 | 1017.0 |
| 20260905031856 | 61 | 250 | 14.0 | 0.0 | 0.00 | 0.00 | 0.00 | 72 | |
| 20260905023103 | 61 | 250 | 10.0 | 0.0 | 0.00 | 0.00 | 0.00 | 72 | 1016.0 |
| 20260905021856 | 61 | 250 | 12.0 | 0.0 | 0.00 | 0.00 | 0.00 | 67 | |
| 20260905020103 | 61 | 250 | 10.0 | 0.0 | 0.00 | 0.00 | 0.00 | 72 | 1016.0 |
| 20260905013104 | 64 | 260 | 10.0 | 0.0 | 0.00 | 0.00 | 0.00 | 59 | 1015.0 |
| 20260905012156 | 64 | 250 | 12.0 | 0.0 | 0.00 | 0.00 | 0.00 | 63 | |
| 20260905010103 | 64 | 260 | 12.0 | 0.0 | 0.00 | 0.00 | 0.00 | 63 | 1015.0 |
| 20260905003102 | 64 | 280 | 12.0 | 0.0 | 0.00 | 0.00 | 0.00 | 63 | 1015.0 |
| 20260905001910 | 66 | 290 | 16.0 | 0.0 | 0.00 | 0.00 | 0.00 | 55 | |
| 20260905000103 | 66 | 290 | 15.0 | 26.0 | 0.00 | 0.00 | 0.00 | 59 | 1015.0 |
| 20260904233103 | 66 | 300 | 13.0 | 0.0 | 0.00 | 0.00 | 0.00 | 68 | 1015.0 |
| 20260904231941 | 64 | 330 | 9.0 | 0.0 | 0.00 | 0.00 | 0.00 | 67 | |
| 20260904223102 | 64 | 20 | 9.0 | 0.0 | 0.00 | 0.00 | 0.00 | 67 | 1013.0 |
| 20260904222328 | 64 | 360 | 7.0 | 0.0 | 0.00 | 0.00 | 0.00 | 67 |